Location: Acheville
(50.3840°N, 2.8827°E)
Time: 00:32:32
(UTC+00:00)

FENGYUN 1C DEB - Pass Details

Date: 10 February 2023
Orbit: 634 x 940 km, 98.3° (Epoch: 28 March)

Event Time Altitude Azimuth Distance (km) Brightness Sun altitude
Rises 18:00:11 0° 186° (S) 3,151 ? -10.5°
Reaches altitude 10° 18:02:41 10° 195° (SSW) 2,187 ? -10.9°
Maximum altitude 18:07:03 36° 262° (W) 1,078 ? -11.6°
Drops below altitude 10° 18:11:13 10° 330° (NNW) 2,077 ? -12.3°
Sets 18:13:32 0° 339° (NNW) 2,971 ? -12.6°
